Location: Arthurs Seat
(13.1500°N, 59.6000°W)
Time: 04:49:31
(UTC+00:00)

Cosmos 1937 Rocket - Pass Details

Date: 25 August 2019
Orbit: 746 x 781 km, 74.0° (Epoch: 22 September)

Event Time Altitude Azimuth Distance (km) Brightness Sun altitude
Rises 23:18:12 0° 183° (S) 3,223 6.6 -16.1°
Reaches altitude 10° 23:20:37 10° 178° (S) 2,302 5.8 -16.6°
Maximum altitude 23:25:43 55° 102° (ESE) 926 3.5 -17.8°
Drops below altitude 10° 23:30:51 10° 25° (NNE) 2,321 5.9 -19.0°
Sets 23:33:17 0° 21° (NNE) 3,252 6.7 -19.6°
